SITRO-AIS 36

Last updated on Mon May 12 2025 00:03:40 GMT+0000 (Coordinated Universal Time)

1 59059U 24039J 25130.79796328 .13625084 26615-5 26243-3 0 9992 2 59059 97.3845 107.7803 0009379 225.9562 134.0969 16.46804688 67344

Satellite not in orbit